| time (UTC) | temp F | wind direction | speed MPH | gust MPH | rain 1hr in | rain 24hr in | rain mn in | humidity % | barometer mb |
| 20260509211523 | 74 | 63 | 2.0 | 5.0 | 0.00 | 0.00 | 0.00 | 26 | 1018.7 |
| 20260509210024 | 73 | 186 | 1.0 | 5.0 | 0.00 | 0.00 | 0.00 | 27 | 1018.8 |
| 20260509204522 | 75 | 213 | 6.0 | 11.0 | 0.00 | 0.00 | 0.00 | 27 | 1018.8 |
| 20260509203019 | 74 | 212 | 0.0 | 5.0 | 0.00 | 0.00 | 0.00 | 26 | 1018.9 |
| 20260509201517 | 73 | 224 | 5.0 | 9.0 | 0.00 | 0.00 | 0.00 | 26 | 1019.0 |
| 20260509200014 | 72 | 192 | 0.0 | 4.0 | 0.00 | 0.00 | 0.00 | 28 | 1019.1 |
| 20260509194511 | 72 | 222 | 2.0 | 8.0 | 0.00 | 0.00 | 0.00 | 29 | 1019.3 |
| 20260509193011 | 71 | 242 | 1.0 | 6.0 | 0.00 | 0.00 | 0.00 | 32 | 1019.6 |
| 20260509191505 | 69 | 208 | 1.0 | 4.0 | 0.00 | 0.00 | 0.00 | 36 | 1019.6 |
| 20260509190004 | 69 | 209 | 3.0 | 7.0 | 0.00 | 0.00 | 0.00 | 35 | 1019.6 |
| 20260509184602 | 68 | 158 | 2.0 | 7.0 | 0.00 | 0.00 | 0.00 | 40 | 1019.7 |
| 20260509183059 | 66 | 354 | 2.0 | 5.0 | 0.00 | 0.00 | 0.00 | 39 | 1019.9 |
| 20260509181554 | 66 | 224 | 0.0 | 5.0 | 0.00 | 0.00 | 0.00 | 41 | 1020.1 |
| 20260509180049 | 64 | 204 | 1.0 | 3.0 | 0.00 | 0.00 | 0.00 | 43 | 1020.3 |
| 20260509174601 | 62 | 245 | 0.0 | 4.0 | 0.00 | 0.00 | 0.00 | 48 | 1020.5 |
| 20260509173049 | 60 | 225 | 2.0 | 7.0 | 0.00 | 0.00 | 0.00 | 49 | 1020.6 |
| 20260509171539 | 59 | 292 | 2.0 | 7.0 | 0.00 | 0.00 | 0.00 | 50 | 1020.9 |
| 20260509170037 | 58 | 64 | 3.0 | 7.0 | 0.00 | 0.00 | 0.00 | 52 | 1021.0 |
| 20260509164533 | 57 | 127 | 3.0 | 6.0 | 0.00 | 0.00 | 0.00 | 53 | 1021.0 |
| 20260509163037 | 55 | 77 | 3.0 | 8.0 | 0.00 | 0.00 | 0.00 | 56 | 1021.0 |
| 20260509161526 | 54 | 111 | 1.0 | 4.0 | 0.00 | 0.00 | 0.00 | 62 | 1021.1 |
| 20260509160023 | 53 | 120 | 1.0 | 4.0 | 0.00 | 0.00 | 0.00 | 66 | 1021.3 |
| 20260509154519 | 52 | 54 | 2.0 | 9.0 | 0.00 | 0.00 | 0.00 | 64 | 1021.6 |
| 20260509153022 | 51 | 104 | 3.0 | 9.0 | 0.00 | 0.00 | 0.00 | 69 | 1021.8 |
| 20260509151518 | 49 | 143 | 1.0 | 4.0 | 0.00 | 0.00 | 0.00 | 72 | 1022.0 |
| 20260509150019 | 46 | 147 | 1.0 | 4.0 | 0.00 | 0.00 | 0.00 | 83 | 1022.1 |
| 20260509144523 | 43 | 151 | 1.0 | 3.0 | 0.00 | 0.00 | 0.00 | 87 | 1022.1 |
| 20260509143015 | 41 | 152 | 0.0 | 1.0 | 0.00 | 0.00 | 0.00 | 87 | 1022.0 |
| 20260509141514 | 41 | 152 | 0.0 | 0.0 | 0.00 | 0.00 | 0.00 | 87 | 1021.9 |
| 20260509140014 | 41 | 152 | 0.0 | 2.0 | 0.00 | 0.00 | 0.00 | 87 | 1021.9 |
| 20260509134511 | 41 | 152 | 0.0 | 1.0 | 0.00 | 0.00 | 0.00 | 86 | 1021.8 |
| 20260509133008 | 41 | 152 | 0.0 | 1.0 | 0.00 | 0.00 | 0.00 | 86 | 1021.6 |
| 20260509131510 | 41 | 152 | 0.0 | 2.0 | 0.00 | 0.00 | 0.00 | 84 | 1021.5 |
| 20260509130009 | 42 | 152 | 0.0 | 2.0 | 0.00 | 0.00 | 0.00 | 83 | 1021.2 |
| 20260509124501 | 42 | 151 | 0.0 | 2.0 | 0.00 | 0.00 | 0.00 | 82 | 1021.2 |
| 20260509123058 | 43 | 149 | 0.0 | 3.0 | 0.00 | 0.00 | 0.00 | 81 | 1021.0 |
| 20260509121616 | 44 | 127 | 0.0 | 4.0 | 0.00 | 0.00 | 0.00 | 78 | 1021.1 |
| 20260509120052 | 45 | 67 | 1.0 | 4.0 | 0.00 | 0.00 | 0.00 | 77 | 1021.1 |
| 20260509114558 | 46 | 65 | 1.0 | 8.0 | 0.00 | 0.00 | 0.00 | 74 | 1021.1 |
| 20260509113057 | 46 | 145 | 1.0 | 3.0 | 0.00 | 0.00 | 0.00 | 73 | 1021.2 |
| 20260509111552 | 46 | 145 | 2.0 | 4.0 | 0.00 | 0.00 | 0.00 | 73 | 1021.1 |
| 20260509110050 | 47 | 149 | 0.0 | 3.0 | 0.00 | 0.00 | 0.00 | 73 | 1021.2 |
| 20260509104551 | 47 | 134 | 1.0 | 6.0 | 0.00 | 0.00 | 0.00 | 73 | 1021.2 |
| 20260509103058 | 47 | 199 | 1.0 | 5.0 | 0.00 | 0.00 | 0.00 | 71 | 1021.2 |
| 20260509101559 | 48 | 228 | 3.0 | 10.0 | 0.00 | 0.00 | 0.00 | 71 | 1021.3 |
| 20260509100045 | 45 | 127 | 1.0 | 4.0 | 0.00 | 0.00 | 0.00 | 75 | 1021.6 |
| 20260509094551 | 45 | 66 | 1.0 | 4.0 | 0.00 | 0.00 | 0.00 | 76 | 1021.6 |
| 20260509093040 | 46 | 163 | 0.0 | 3.0 | 0.00 | 0.00 | 0.00 | 74 | 1021.6 |
| 20260509091537 | 46 | 264 | 1.0 | 3.0 | 0.00 | 0.00 | 0.00 | 73 | 1021.7 |
| 20260509090039 | 47 | 106 | 0.0 | 3.0 | 0.00 | 0.00 | 0.00 | 71 | 1021.6 |
| 20260509084531 | 48 | 160 | 0.0 | 6.0 | 0.00 | 0.00 | 0.00 | 68 | 1021.6 |
| 20260509083035 | 49 | 170 | 1.0 | 5.0 | 0.00 | 0.00 | 0.00 | 66 | 1021.6 |
| 20260509081529 | 49 | 211 | 1.0 | 6.0 | 0.00 | 0.00 | 0.00 | 65 | 1021.5 |
| 20260509080024 | 50 | 170 | 0.0 | 3.0 | 0.00 | 0.00 | 0.00 | 62 | 1021.4 |
| 20260509074518 | 52 | 212 | 2.0 | 9.0 | 0.00 | 0.00 | 0.00 | 58 | 1021.4 |
| 20260509073024 | 52 | 223 | 2.0 | 10.0 | 0.00 | 0.00 | 0.00 | 58 | 1021.4 |
| 20260509071516 | 52 | 201 | 6.0 | 11.0 | 0.00 | 0.00 | 0.00 | 58 | 1021.3 |
| 20260509070012 | 52 | 223 | 4.0 | 15.0 | 0.00 | 0.00 | 0.00 | 58 | 1021.1 |
| 20260509064512 | 51 | 209 | 3.0 | 12.0 | 0.00 | 0.00 | 0.00 | 58 | 1020.9 |
| 20260509063019 | 51 | 250 | 5.0 | 14.0 | 0.00 | 0.00 | 0.00 | 59 | 1020.8 |
| 20260509061510 | 51 | 195 | 4.0 | 9.0 | 0.00 | 0.00 | 0.00 | 59 | 1020.9 |
| 20260509060012 | 50 | 218 | 3.0 | 6.0 | 0.00 | 0.00 | 0.00 | 60 | 1020.9 |
| 20260509054508 | 50 | 203 | 4.0 | 8.0 | 0.00 | 0.00 | 0.00 | 60 | 1020.8 |
| 20260509053008 | 50 | 203 | 2.0 | 8.0 | 0.00 | 0.00 | 0.00 | 60 | 1020.7 |
| 20260509051508 | 50 | 135 | 1.0 | 5.0 | 0.00 | 0.00 | 0.00 | 58 | 1020.6 |
| 20260509050007 | 51 | 106 | 1.0 | 4.0 | 0.00 | 0.00 | 0.00 | 57 | 1020.5 |
| 20260509044504 | 50 | 210 | 0.0 | 11.0 | 0.00 | 0.00 | 0.00 | 58 | 1020.4 |
| 20260509043002 | 50 | 216 | 1.0 | 14.0 | 0.00 | 0.00 | 0.00 | 59 | 1020.3 |
| 20260509041502 | 50 | 185 | 0.0 | 3.0 | 0.00 | 0.00 | 0.00 | 61 | 1020.2 |
| 20260509040104 | 51 | 111 | 0.0 | 3.0 | 0.00 | 0.00 | 0.00 | 58 | 1020.0 |
| 20260509034559 | 52 | 359 | 0.0 | 4.0 | 0.00 | 0.00 | 0.00 | 53 | 1019.9 |
| 20260509033056 | 54 | 208 | 0.0 | 8.0 | 0.00 | 0.00 | 0.00 | 48 | 1019.5 |
| 20260509031600 | 55 | 222 | 0.0 | 5.0 | 0.00 | 0.00 | 0.00 | 47 | 1019.4 |
| 20260509030110 | 56 | 219 | 3.0 | 10.0 | 0.00 | 0.00 | 0.00 | 44 | 1019.2 |
| 20260509024551 | 56 | 234 | 2.0 | 12.0 | 0.00 | 0.00 | 0.00 | 42 | 1018.9 |
| 20260509023050 | 57 | 214 | 4.0 | 9.0 | 0.00 | 0.00 | 0.00 | 42 | 1019.0 |
| 20260509021548 | 58 | 212 | 3.0 | 10.0 | 0.00 | 0.00 | 0.00 | 39 | 1018.6 |
| 20260509020053 | 60 | 46 | 5.0 | 11.0 | 0.00 | 0.00 | 0.00 | 35 | 1018.3 |
| 20260509014546 | 63 | 224 | 2.0 | 8.0 | 0.00 | 0.00 | 0.00 | 32 | 1018.2 |
| 20260509013044 | 63 | 182 | 1.0 | 7.0 | 0.00 | 0.00 | 0.00 | 33 | 1017.9 |
| 20260509011543 | 66 | 256 | 1.0 | 6.0 | 0.00 | 0.00 | 0.00 | 29 | 1017.8 |
| 20260509010040 | 65 | 179 | 1.0 | 12.0 | 0.00 | 0.00 | 0.00 | 27 | 1017.7 |
| 20260509004552 | 65 | 103 | 1.0 | 7.0 | 0.00 | 0.00 | 0.00 | 30 | 1017.7 |
| 20260509003049 | 64 | 187 | 2.0 | 15.0 | 0.00 | 0.00 | 0.00 | 29 | 1017.5 |
| 20260509001538 | 66 | 220 | 3.0 | 8.0 | 0.00 | 0.00 | 0.00 | 29 | 1017.4 |
| 20260509000036 | 63 | 34 | 4.0 | 10.0 | 0.00 | 0.00 | 0.00 | 28 | 1017.3 |
| 20260508234534 | 65 | 166 | 3.0 | 10.0 | 0.00 | 0.00 | 0.00 | 27 | 1017.1 |
| 20260508233034 | 66 | 93 | 3.0 | 17.0 | 0.00 | 0.00 | 0.00 | 26 | 1016.9 |
| 20260508231533 | 65 | 354 | 3.0 | 15.0 | 0.00 | 0.00 | 0.00 | 29 | 1017.1 |
| 20260508230031 | 64 | 235 | 6.0 | 14.0 | 0.00 | 0.00 | 0.00 | 30 | 1016.8 |
| 20260508224538 | 62 | 134 | 1.0 | 7.0 | 0.00 | 0.00 | 0.00 | 30 | 1016.9 |
| 20260508223045 | 62 | 213 | 6.0 | 17.0 | 0.00 | 0.00 | 0.00 | 33 | 1017.0 |
| 20260508221530 | 63 | 236 | 0.0 | 5.0 | 0.00 | 0.00 | 0.00 | 34 | 1016.9 |
| 20260508220031 | 65 | 121 | 5.0 | 10.0 | 0.00 | 0.00 | 0.00 | 28 | 1016.8 |
| 20260508214527 | 64 | 231 | 4.0 | 10.0 | 0.00 | 0.00 | 0.00 | 29 | 1017.0 |
| 20260508213026 | 64 | 19 | 4.0 | 9.0 | 0.00 | 0.00 | 0.00 | 28 | 1016.7 |